Theta_e
317 319 319 318 316 322 325 324 327 330 333 335 336 340 344 347 345 342 339 339 340 337 336 335 336 338 338 338 342 343 342 343 343 341 341 342 342 342 341 340 340 340 340 340 340 340 342 341 339 341 341 338 337 338 337 332 330 338 339 337 337 334 333 333 331 335 337 337 338 338 338 339 340 342 342 342 341 340 337 337 337 336 337 337 336
318 321 322 322 317 320 325 325 328 331 331 332 336 337 342 346 346 344 342 340 340 339 340 339 338 340 340 340 342 343 342 342 342 342 340 341 342 342 341 340 340 341 340 340 340 340 342 342 341 342 340 338 340 338 335 334 335 339 339 338 340 340 338 336 332 336 340 340 341 342 342 341 341 342 343 343 342 341 338 337 337 336 336 337 338
319 321 324 325 321 319 324 325 326 328 328 329 334 335 340 347 346 343 342 340 340 340 339 338 340 341 340 341 343 343 343 341 341 342 340 341 341 342 342 340 340 341 340 339 339 340 341 343 344 341 338 340 341 337 335 337 340 341 339 338 343 343 340 339 335 337 341 340 341 346 347 347 346 345 344 343 343 341 339 336 335 336 335 338 339
320 321 323 324 323 322 322 324 323 324 327 328 332 334 339 347 346 342 342 341 340 340 338 338 339 339 340 342 343 343 343 342 341 341 341 341 341 342 342 341 341 341 340 339 339 340 340 343 345 341 339 341 340 337 337 340 342 341 339 339 342 342 341 341 340 340 341 342 344 347 346 346 349 348 344 343 343 342 340 336 335 336 334 335 338
321 321 322 322 323 324 322 322 322 322 327 329 332 334 336 346 346 342 342 342 341 340 339 339 339 338 340 340 339 339 340 341 342 341 341 341 341 343 342 341 341 341 340 340 339 339 340 343 345 342 339 341 340 338 339 342 344 341 339 341 342 341 341 340 341 342 342 342 344 346 346 348 351 347 343 345 344 342 342 339 334 335 336 335 336
320 320 321 322 323 324 322 321 321 321 326 329 333 335 334 343 347 343 342 343 342 340 338 339 340 339 340 339 338 336 336 340 342 341 341 341 341 342 341 340 341 341 341 340 339 340 341 342 345 344 341 342 342 341 341 342 345 343 341 343 342 342 341 341 343 343 343 344 343 344 346 347 347 345 344 347 346 342 342 342 337 334 337 338 336
321 320 320 322 322 324 323 322 321 320 324 328 332 335 333 341 347 343 341 343 342 341 339 340 339 336 337 337 337 337 335 338 341 341 341 341 340 341 341 341 341 341 341 341 340 339 341 343 346 345 343 344 343 343 343 342 343 343 342 341 341 340 340 340 343 344 343 344 344 344 344 343 343 344 345 346 347 345 343 342 341 337 335 338 338
321 321 321 322 322 323 323 322 322 320 321 326 330 333 333 339 346 343 341 342 342 340 339 340 339 334 334 335 336 337 337 336 338 341 342 341 341 341 341 341 341 341 341 340 340 339 339 344 347 345 343 344 344 344 344 343 342 343 342 341 341 341 341 339 341 344 344 344 343 343 343 343 342 343 343 343 345 347 346 344 343 340 337 336 337
319 320 321 322 322 322 321 320 321 320 320 325 328 331 333 336 343 344 343 342 342 341 340 340 339 336 334 335 336 337 339 338 337 338 341 342 342 341 340 341 341 341 340 340 341 339 340 343 346 346 344 344 343 343 344 343 342 342 342 342 342 343 343 342 341 342 344 344 343 343 342 342 342 342 342 341 343 345 347 347 345 343 342 338 335
318 320 320 321 322 321 320 319 321 320 320 323 326 329 334 336 339 345 346 344 342 342 341 340 339 336 335 336 337 337 338 338 337 336 339 342 342 341 341 341 341 341 340 340 341 341 342 343 346 346 345 345 343 343 344 344 343 342 342 343 343 344 343 343 342 343 343 343 342 342 342 342 343 342 342 341 343 344 345 347 345 342 344 342 335
318 320 319 320 320 319 320 320 320 320 319 322 326 328 334 336 336 342 347 346 343 342 341 340 339 337 336 336 337 338 338 337 337 337 339 342 343 342 341 341 341 341 341 340 341 343 343 343 345 346 346 345 343 343 344 345 344 344 344 344 344 344 343 343 343 343 344 343 342 342 341 342 342 343 342 341 343 345 345 347 344 341 342 341 338
317 319 318 320 322 320 321 321 320 321 321 322 325 327 332 337 336 338 345 347 344 343 342 340 339 337 337 337 337 338 338 337 337 340 341 343 343 342 341 342 342 341 341 341 342 343 343 343 345 346 346 345 343 343 343 344 344 344 345 345 344 344 345 345 344 344 344 344 344 342 341 341 341 341 340 340 342 343 344 346 344 342 342 340 339
318 319 318 321 323 323 323 323 321 321 323 324 325 326 329 336 337 336 342 347 345 343 342 340 339 338 337 338 338 338 338 338 339 342 343 342 342 342 342 343 343 342 342 343 343 344 344 344 345 346 347 345 343 343 343 343 344 344 344 345 345 345 345 345 345 345 345 344 344 343 342 341 341 341 340 340 342 342 343 346 344 342 343 341 340
317 317 319 322 324 324 324 323 322 321 322 323 325 327 328 333 337 335 340 347 346 343 342 340 340 339 337 336 337 338 339 340 341 342 343 343 343 343 343 343 343 343 343 343 344 344 344 344 345 345 346 345 344 343 343 344 344 344 344 345 346 346 345 345 344 345 345 344 344 343 342 342 341 341 341 340 342 342 343 345 345 343 342 340 339
316 317 319 322 324 325 325 322 321 321 321 322 323 327 328 330 335 335 337 346 346 343 342 341 339 339 337 336 336 338 340 341 342 342 343 343 343 343 344 344 344 344 343 344 344 344 344 345 345 345 345 345 345 345 344 344 344 344 344 345 345 345 344 344 343 344 344 344 344 343 342 342 341 341 341 342 342 343 343 343 343 344 344 342 340
315 316 319 323 324 325 326 323 321 321 321 322 322 325 328 329 333 333 336 345 345 343 342 341 340 339 337 337 337 338 340 342 343 343 343 344 343 343 344 344 344 344 344 344 344 344 344 346 345 345 345 345 346 345 344 343 343 343 344 345 344 344 343 342 342 342 343 343 343 343 343 342 342 342 342 343 343 343 344 343 342 342 343 344 343
316 315 317 322 323 324 324 322 322 322 323 323 322 322 325 329 332 332 338 344 343 342 342 340 340 339 337 337 338 338 340 342 343 344 343 344 344 344 344 345 345 344 344 345 344 343 344 346 345 345 346 346 346 345 344 343 342 343 343 344 344 343 342 342 342 342 342 343 343 343 343 343 342 343 343 343 343 343 343 343 342 340 340 342 343
318 317 317 321 323 324 324 323 322 322 323 323 323 323 324 329 332 331 339 343 342 341 341 340 340 338 337 338 339 338 339 341 343 344 344 344 344 344 344 344 345 346 345 345 344 343 344 346 346 346 347 348 346 346 344 342 342 342 343 344 343 342 342 341 342 342 342 343 343 343 344 343 343 343 343 343 342 343 343 343 342 340 339 340 340
319 318 318 320 322 323 323 323 322 321 323 322 322 324 325 329 332 330 339 343 342 340 340 340 340 338 337 338 339 339 339 340 342 344 345 345 345 345 345 345 346 345 345 346 344 344 345 347 347 347 347 346 346 346 344 342 342 343 344 345 343 342 342 341 341 342 342 343 343 344 344 344 344 343 343 343 342 343 343 342 341 340 338 338 337
318 318 318 319 321 321 321 322 322 321 323 322 322 324 325 329 332 330 337 342 341 340 340 339 339 338 337 338 339 339 339 339 340 343 345 343 340 340 342 344 346 346 345 347 346 344 346 347 347 347 346 346 346 346 345 343 344 345 345 345 344 343 343 342 341 342 342 343 344 344 344 344 344 343 343 342 342 342 343 341 340 339 338 338 336
317 318 318 319 321 322 320 321 321 320 321 322 322 324 325 328 332 331 334 340 341 341 341 340 339 339 337 337 338 338 338 338 339 340 343 342 339 338 339 339 342 346 346 346 346 346 346 346 346 345 344 345 347 346 345 345 345 346 345 345 344 343 342 342 342 342 342 343 344 344 344 344 344 343 343 342 342 342 342 340 339 338 338 338 337
316 318 318 319 320 322 321 320 320 319 320 321 322 324 325 326 330 331 333 339 342 342 342 342 341 339 339 338 338 338 337 338 338 340 341 342 340 340 340 339 339 342 344 345 346 346 345 345 344 343 344 346 347 346 346 345 346 347 346 345 344 343 342 341 341 342 342 343 344 344 344 344 343 343 343 343 343 343 341 340 339 337 337 336 336
315 317 318 319 320 323 324 322 320 320 320 321 322 325 327 328 331 332 332 337 342 343 343 343 342 340 339 339 338 338 338 338 338 339 339 340 339 338 339 340 340 340 342 345 347 346 345 344 343 344 346 346 347 347 346 346 346 347 346 345 344 343 343 342 341 342 341 342 343 343 344 343 343 343 343 343 342 342 341 340 339 337 336 336 335
315 316 318 319 319 322 323 321 320 321 321 321 321 324 329 332 333 332 332 334 339 342 344 343 342 341 340 339 339 338 338 338 338 338 339 338 339 339 339 340 340 340 340 343 346 346 344 345 344 346 347 347 347 347 347 346 346 346 345 345 344 343 343 342 341 341 341 341 342 343 343 343 343 342 343 343 342 341 340 339 338 337 335 335 335
315 316 318 319 319 321 322 322 321 319 319 320 321 323 328 331 331 330 331 333 337 340 343 343 341 340 340 339 339 338 338 338 338 338 338 338 338 339 339 339 340 341 340 340 344 346 345 345 345 346 347 347 348 348 347 346 346 346 345 345 344 344 343 342 341 341 340 340 341 342 343 343 343 343 343 343 342 341 340 339 338 336 335 334 334
315 315 317 319 319 320 322 323 321 319 317 319 321 323 326 327 328 328 328 331 334 336 341 343 341 339 340 339 338 338 338 338 338 337 338 338 338 339 339 339 339 340 341 339 340 345 346 345 345 346 346 348 348 348 347 346 346 345 345 345 344 343 343 342 341 341 340 340 341 342 343 343 343 343 342 343 342 341 340 338 337 336 335 334 334
316 316 317 319 320 320 321 322 321 320 317 317 320 324 325 326 327 327 326 329 332 332 334 339 342 340 339 338 338 337 337 338 338 338 338 338 339 338 339 339 339 340 341 339 338 343 346 345 345 346 347 348 348 348 347 346 346 345 345 345 345 344 343 342 341 340 340 340 340 341 343 343 343 343 342 343 342 341 340 338 337 336 334 334 334
315 316 317 318 319 320 320 321 321 321 319 317 319 322 323 326 327 325 324 327 331 331 330 332 338 340 339 338 338 338 338 338 338 338 339 339 339 339 339 340 340 339 340 339 338 342 346 346 345 346 347 348 347 347 347 346 346 345 345 345 345 344 343 342 341 341 340 340 340 341 342 343 343 342 342 342 342 340 340 338 336 335 334 333 334
316 316 316 317 319 320 321 321 321 321 321 319 319 320 320 325 327 325 324 326 330 331 329 330 333 338 339 338 338 337 337 338 339 339 340 339 339 340 340 341 341 341 340 340 338 340 344 346 346 346 347 348 347 346 346 346 345 345 345 345 346 345 343 341 341 341 341 341 341 342 342 342 342 342 342 342 341 340 339 338 336 335 334 334 334
319 318 317 317 318 320 321 322 321 320 320 320 319 319 320 322 326 326 326 327 329 330 331 333 335 337 339 339 338 338 338 338 339 339 339 339 339 340 340 340 341 341 341 340 337 335 338 342 345 347 346 347 347 346 345 346 345 345 345 345 345 345 343 342 342 341 341 341 341 341 342 342 342 342 341 341 341 340 339 337 336 335 334 334 333
318 318 318 318 318 319 320 321 321 320 319 320 318 319 319 320 326 327 326 326 327 330 332 334 336 338 340 340 339 339 339 339 339 339 339 339 339 339 340 340 339 337 338 339 336 335 336 338 341 346 347 347 347 346 346 345 345 345 345 345 345 344 343 342 342 342 342 342 341 341 342 342 341 341 341 340 340 339 338 336 335 334 333 333 333
316 318 318 318 318 318 320 321 321 321 320 319 319 319 319 320 326 327 328 328 328 331 333 334 337 339 339 340 341 340 340 340 339 339 339 339 339 339 339 340 338 336 336 337 335 336 338 338 337 343 347 347 346 346 345 345 345 345 345 345 344 344 343 342 342 342 342 342 341 341 342 341 341 340 340 339 338 337 336 336 334 332 332 333 332
315 317 319 319 317 317 319 321 322 321 319 319 318 319 319 319 324 326 328 329 330 332 334 336 338 336 333 334 335 336 339 340 340 339 338 338 338 338 339 339 338 336 336 337 336 336 339 338 336 341 345 346 346 346 345 344 344 344 345 344 344 344 343 342 342 342 343 342 342 342 341 340 340 339 339 338 338 336 335 334 332 330 331 332 332
316 317 319 319 318 317 318 321 322 321 318 318 318 318 319 319 321 325 326 328 330 332 334 335 335 333 331 332 331 331 336 339 339 338 337 337 336 337 338 338 338 338 337 336 335 336 338 338 337 342 345 346 346 345 345 344 344 343 344 344 344 343 343 342 342 342 342 342 342 342 341 340 339 339 338 337 337 335 334 332 330 328 328 329 329
317 318 319 319 319 319 318 320 322 322 319 319 319 318 319 319 320 322 324 327 329 330 332 333 332 331 332 333 332 334 338 340 339 338 337 337 336 336 337 337 338 338 338 337 337 336 337 337 339 344 346 346 346 345 345 345 344 344 343 343 343 343 342 342 342 342 342 342 341 342 342 340 339 338 336 336 336 334 333 331 328 326 326 326 326
319 320 320 320 320 319 319 320 322 322 320 319 319 318 318 319 320 320 322 325 326 328 329 329 329 331 332 332 334 337 340 340 338 338 337 337 336 337 336 337 337 338 338 338 339 338 337 337 341 345 346 346 346 345 345 344 344 343 343 342 342 343 342 342 342 342 342 342 341 342 342 341 340 338 336 336 335 333 331 329 327 326 325 325 324
320 320 321 321 320 320 320 321 322 322 321 318 318 319 318 319 321 320 321 323 325 326 327 327 328 331 333 335 337 338 340 340 339 338 337 336 336 337 337 336 336 338 337 337 338 338 339 341 344 345 345 346 346 345 344 344 343 343 343 342 342 343 342 342 342 342 342 341 340 341 341 340 340 338 337 335 333 332 330 327 326 326 325 324 323
320 321 321 320 320 320 321 321 323 323 321 318 318 319 318 319 321 321 320 321 323 325 326 326 327 329 332 336 339 340 340 339 338 337 336 336 335 336 337 336 336 337 338 337 337 338 340 343 345 345 345 345 346 345 344 344 343 343 342 342 342 342 342 342 342 342 341 341 340 341 341 341 339 338 337 335 332 330 329 327 327 326 324 323 323
320 321 321 321 321 321 321 322 323 322 321 319 319 320 320 320 321 320 320 322 325 324 323 324 326 327 330 335 339 340 339 338 338 337 336 335 335 336 336 336 336 337 338 337 338 340 341 343 345 346 345 345 346 345 344 344 344 343 342 342 342 342 342 342 342 341 341 340 340 341 341 340 339 338 336 334 331 329 328 328 327 325 323 322 322
319 319 319 320 321 322 322 323 323 322 320 319 319 321 321 321 321 321 321 323 325 324 322 323 324 325 330 335 338 338 339 338 338 337 335 335 334 334 335 335 336 336 336 335 338 341 342 344 345 346 345 346 346 345 344 344 343 343 342 341 342 341 341 341 342 341 340 340 340 341 341 340 339 337 336 334 331 330 329 329 328 326 323 322 321
318 318 318 319 320 321 322 322 321 320 319 319 320 321 322 321 321 322 322 323 324 323 322 323 324 325 329 334 335 337 339 339 338 337 335 334 333 333 333 334 335 335 335 336 339 342 343 343 344 345 346 346 346 345 344 343 343 342 341 341 341 341 340 341 341 341 340 341 340 340 340 340 339 337 335 333 331 329 330 330 329 327 324 323 322
317 317 317 318 319 320 321 321 320 320 320 320 321 322 323 323 322 322 322 322 323 323 322 322 324 325 327 329 334 338 339 338 338 337 335 333 333 333 333 334 334 335 336 339 341 341 341 343 344 345 345 346 346 345 344 342 342 341 341 340 340 341 340 341 341 341 340 340 339 339 339 338 338 337 334 333 331 329 329 329 329 328 326 325 322
316 316 315 317 320 321 320 319 319 320 320 321 322 323 323 323 324 323 322 322 322 322 322 323 324 325 327 330 335 338 338 338 338 337 335 334 333 333 333 334 334 335 338 341 342 341 342 343 344 345 345 346 346 345 344 343 341 341 340 340 340 341 341 340 341 341 341 340 339 339 338 337 336 335 333 332 331 328 327 327 327 327 325 323 319
314 314 313 316 321 322 319 318 319 319 319 320 321 322 324 326 326 324 323 323 322 321 322 325 325 326 327 330 334 336 336 336 337 336 335 334 333 333 332 332 331 334 339 341 341 341 342 341 340 340 340 341 344 345 344 343 341 340 340 339 339 341 341 341 341 340 340 339 338 338 337 336 335 333 332 331 330 327 326 325 324 324 323 321 319
313 312 313 316 319 320 319 318 317 317 318 319 320 322 325 326 325 324 323 324 323 323 325 325 325 327 329 332 335 336 337 336 336 334 333 333 333 332 332 330 329 333 337 338 337 338 338 337 336 335 333 335 339 343 343 342 341 340 340 340 339 340 341 340 340 340 339 339 338 337 336 335 334 332 331 329 327 326 325 323 322 322 321 320 320
311 311 312 314 316 318 319 321 318 317 318 318 320 322 324 324 323 321 322 323 323 325 327 326 325 326 329 332 334 336 338 338 337 335 333 333 333 332 332 332 332 333 335 335 335 334 334 333 333 333 333 334 337 340 342 342 341 341 340 339 339 339 340 339 339 339 339 338 337 336 335 334 333 332 330 327 325 324 323 321 320 320 320 318 318
310 310 311 312 313 315 317 319 320 321 322 321 320 320 321 323 323 322 322 323 324 325 327 328 327 327 329 331 333 335 337 337 336 336 335 334 333 332 333 335 334 334 333 333 333 333 332 332 331 331 332 334 335 338 341 341 340 340 340 339 338 337 337 337 337 338 337 337 335 334 333 332 330 328 327 325 323 322 320 319 318 318 317 316 316
309 309 310 311 312 313 314 315 317 318 320 324 324 322 321 322 323 324 324 324 324 324 327 328 327 326 327 330 332 335 337 337 336 335 336 336 335 334 335 337 336 335 334 332 332 333 332 332 332 331 332 333 335 337 339 340 340 339 339 338 336 334 335 336 336 335 335 334 332 331 328 327 326 324 322 321 320 319 318 317 317 317 316 316 316
308 309 309 310 310 311 311 312 314 315 317 320 323 324 324 324 324 324 325 325 324 325 326 326 327 326 327 330 331 332 334 335 335 334 334 335 336 337 338 339 337 336 335 334 333 334 333 333 333 332 331 335 337 338 339 339 339 339 339 338 336 334 334 334 334 334 333 329 327 327 325 323 322 320 319 318 317 316 316 316 316 315 315 315 316
307 308 308 309 309 309 310 310 311 312 314 316 318 320 321 324 325 325 326 325 326 327 326 326 327 326 327 330 331 331 332 333 333 333 334 334 335 336 338 338 338 337 337 336 336 335 335 335 334 332 333 337 340 340 338 337 337 337 337 338 337 335 333 332 332 332 330 327 324 324 322 320 319 318 317 316 315 315 315 314 314 313 314 314 314
307 307 307 308 308 308 309 309 309 310 311 313 315 316 317 319 322 324 326 327 327 327 327 327 327 326 326 329 331 331 332 332 331 333 335 334 332 332 335 336 337 337 338 338 338 338 338 338 337 336 337 340 341 340 338 336 335 334 334 335 335 332 331 332 331 329 327 323 321 320 319 318 318 318 317 316 315 315 315 314 312 313 314 314 313
Wind_Speed
8 10 10 16 19 17 22 23 20 20 18 17 18 18 17 17 17 21 25 27 31 30 20 11 12 23 22 17 22 27 27 28 29 29 30 28 28 30 32 31 27 26 28 28 28 26 22 23 24 24 23 22 22 22 19 18 19 18 17 16 15 15 14 15 13 10 8 7 8 10 12 13 14 12 9 7 6 5 6 6 6 5 4 7 6
9 10 10 12 19 17 18 21 18 16 16 16 17 17 14 17 20 21 25 32 35 37 35 25 23 27 29 30 29 29 29 28 28 29 30 28 28 30 31 31 28 27 28 28 28 27 24 23 23 23 23 22 22 22 20 18 20 19 17 16 15 15 14 14 14 10 7 7 8 6 8 11 14 13 10 7 6 7 9 7 6 6 4 7 5
10 10 9 8 16 19 17 18 18 17 18 19 19 18 15 18 22 23 26 33 36 38 38 33 33 32 30 33 32 31 30 28 27 27 28 27 27 29 31 31 28 27 28 27 27 27 26 24 22 23 24 23 22 22 21 19 20 20 18 18 16 14 14 13 14 13 9 8 7 4 2 4 6 8 8 9 9 8 11 11 6 5 4 4 4
10 11 10 8 11 17 18 18 20 20 21 22 21 19 17 19 24 26 27 32 35 40 41 35 32 29 25 25 24 26 29 27 24 25 26 26 27 27 30 32 29 27 27 27 27 26 27 25 22 23 24 24 23 23 22 20 20 21 19 19 17 15 15 14 15 14 11 7 3 2 3 2 1 4 7 10 12 10 11 15 13 8 5 5 6
10 11 11 10 9 11 15 18 19 19 21 23 21 20 18 19 25 27 28 31 36 41 42 35 31 27 24 21 14 11 19 26 24 24 26 27 27 27 31 34 29 28 27 26 27 25 26 25 22 23 24 23 23 23 23 21 20 21 20 20 19 17 15 15 16 16 14 12 7 3 1 1 1 2 4 7 12 12 9 14 19 17 10 5 6
11 11 12 12 11 11 13 17 18 18 20 22 21 20 19 20 25 28 28 31 36 41 41 35 28 24 25 27 18 11 15 22 25 27 27 28 29 26 30 33 29 28 28 25 25 24 26 25 22 23 24 23 23 23 23 22 20 21 21 21 21 19 15 11 13 18 15 13 12 8 5 3 1 1 1 2 9 11 8 10 18 24 19 7 5
11 12 12 12 12 12 13 17 21 22 22 22 21 20 20 22 27 30 30 31 36 41 39 34 27 18 19 26 28 27 20 19 21 29 29 28 30 28 29 32 29 28 29 26 24 24 27 26 21 23 24 23 24 23 23 24 22 20 20 21 20 18 17 12 8 14 16 12 13 11 9 7 5 4 2 1 2 5 7 9 11 18 22 14 6
12 11 12 13 13 13 14 19 23 25 24 23 23 22 23 23 27 32 31 30 37 39 34 35 33 22 16 18 22 26 25 19 16 23 30 29 29 29 30 31 30 28 28 27 24 24 27 26 22 23 24 23 24 24 23 23 23 21 20 21 19 17 18 16 11 11 14 14 13 12 11 9 8 7 7 5 2 1 4 6 7 9 15 15 10
15 13 12 13 12 14 18 21 23 25 25 25 25 25 25 25 26 30 31 29 35 38 35 39 41 32 26 25 23 23 27 25 17 16 23 29 27 27 29 30 29 28 28 27 25 24 26 26 23 24 25 25 26 25 23 23 23 21 20 20 20 18 17 16 15 13 11 11 12 13 12 10 8 9 10 9 5 2 2 2 4 6 7 8 7
15 15 14 13 13 17 23 24 23 25 25 25 26 25 24 25 26 27 29 28 32 39 41 42 41 37 34 33 31 27 27 29 23 19 19 24 26 26 28 29 29 29 29 29 27 26 26 26 25 25 25 25 26 26 24 23 22 21 20 19 19 18 16 15 14 14 11 9 10 11 11 10 8 7 9 10 7 5 4 2 1 1 2 4 5
12 13 16 16 16 19 22 23 24 26 26 25 25 25 25 25 27 27 27 28 31 36 43 43 41 39 36 32 32 32 31 30 29 27 24 23 26 27 28 29 29 30 31 31 29 28 27 27 26 26 26 26 26 27 26 24 23 21 19 19 18 16 16 16 14 14 12 11 10 10 9 10 8 6 7 8 6 4 3 3 1 2 2 4 4
12 12 14 15 16 17 17 19 23 24 24 25 25 26 25 25 27 27 26 29 29 31 41 43 38 37 36 33 32 32 34 33 29 28 29 27 27 28 28 28 28 29 30 31 30 29 28 29 28 27 27 27 28 27 26 24 23 21 19 18 19 17 16 16 15 14 14 12 12 11 10 10 9 9 9 5 4 3 2 2 3 3 2 3 6
11 11 12 11 12 14 14 15 19 21 21 22 25 26 25 25 27 27 26 30 29 28 37 41 37 37 37 33 32 32 33 35 32 29 30 30 29 28 27 28 28 28 30 30 31 31 30 30 30 30 30 30 29 28 27 25 23 22 21 19 19 19 17 16 15 14 14 13 12 11 12 11 10 11 10 6 4 3 1 1 2 2 1 2 9
9 10 11 9 10 12 12 13 16 19 20 21 22 24 25 24 26 27 26 29 31 29 34 39 38 39 37 30 28 30 31 32 33 31 30 30 30 30 29 29 30 31 32 32 33 33 31 32 32 31 30 31 30 29 27 25 24 22 22 20 19 19 18 17 16 14 14 13 12 12 12 12 11 11 10 7 5 3 2 1 1 3 3 3 4
10 10 11 11 10 11 11 13 17 20 23 22 20 21 24 24 25 27 26 27 32 32 35 41 42 41 42 39 34 32 30 30 32 32 31 31 32 33 33 32 32 33 34 33 34 35 34 32 32 30 29 30 31 30 27 26 25 23 21 20 19 18 18 17 16 15 14 13 13 13 12 12 12 10 8 7 5 4 3 1 0 1 2 3 3
13 11 11 11 11 11 10 13 18 20 22 23 22 21 22 23 25 27 25 28 35 36 36 42 45 44 46 46 44 39 34 30 30 31 32 33 34 35 35 34 32 32 34 34 35 37 35 33 32 30 29 30 31 30 28 27 26 24 21 21 20 19 18 17 16 14 14 14 13 13 13 12 10 9 8 7 6 5 3 2 2 1 1 1 2
14 13 11 9 9 10 11 14 18 19 19 21 23 25 25 25 26 27 25 30 37 39 38 41 46 47 45 44 44 42 39 35 33 33 34 34 35 35 35 34 33 33 33 34 36 38 36 33 33 31 29 30 31 31 29 27 26 25 22 21 21 20 18 18 17 15 14 14 14 14 14 13 11 10 9 8 6 5 4 4 3 2 2 1 1
17 16 14 10 7 8 10 14 19 20 19 19 21 24 27 27 27 28 26 31 37 40 37 39 45 47 43 41 42 42 40 38 35 34 34 36 36 36 35 33 32 33 34 34 36 38 36 34 33 32 31 30 30 30 29 27 26 26 23 21 22 21 19 17 16 15 14 14 15 15 15 13 11 10 10 9 8 6 5 5 4 4 4 2 2
17 17 14 9 6 8 10 13 18 20 19 20 21 22 24 26 27 28 27 32 38 39 36 38 42 43 41 41 42 42 40 38 35 33 32 34 35 34 35 34 32 32 33 33 35 37 36 35 33 33 32 31 30 29 29 27 26 27 25 21 21 21 19 17 15 14 14 14 15 15 14 13 12 11 10 9 8 7 6 5 4 4 5 4 3
16 17 16 12 7 9 12 14 17 19 20 23 25 25 25 25 26 27 26 32 38 38 37 38 37 36 39 41 41 40 39 37 35 33 29 28 28 24 23 27 30 32 31 31 34 35 36 36 35 34 33 31 30 28 28 28 27 27 26 23 22 22 20 17 16 15 15 15 15 15 14 14 13 12 11 10 9 9 8 5 4 5 5 6 4
17 16 17 16 11 9 11 13 18 19 21 23 24 25 25 25 26 27 26 32 37 36 36 36 34 33 36 39 41 40 38 36 34 34 29 24 26 26 21 18 21 28 31 30 32 34 36 37 35 34 33 31 30 29 29 28 27 27 26 24 23 22 21 19 17 16 16 16 16 15 15 14 14 13 12 12 11 10 8 6 5 5 5 6 5
18 16 16 17 13 9 10 12 15 18 19 21 21 22 23 23 25 26 26 33 36 34 33 33 32 33 35 37 39 39 37 36 34 36 33 25 25 32 30 23 21 23 28 31 32 33 35 36 35 34 33 31 30 30 29 29 28 27 27 26 24 22 22 20 18 18 18 17 17 16 15 15 14 14 13 13 12 11 10 8 8 7 6 5 5
19 17 15 15 15 10 7 10 13 17 17 17 17 16 19 23 25 23 25 33 35 30 32 34 32 34 38 38 38 36 36 36 35 36 38 33 29 30 32 31 27 24 26 30 32 33 34 35 34 33 32 31 30 30 30 30 29 28 27 26 25 23 23 21 20 19 19 19 19 17 16 16 16 16 14 13 13 12 11 11 10 9 7 6 5
18 17 14 13 15 11 5 7 11 14 14 15 16 14 14 18 20 16 18 29 36 33 32 35 34 33 36 38 38 37 35 36 36 36 37 38 36 33 31 31 31 27 27 29 31 32 32 33 33 32 31 32 31 30 31 30 29 29 27 26 25 24 23 22 21 20 20 20 20 19 17 16 17 17 16 15 14 13 12 11 10 9 8 7 6
17 17 16 15 16 12 4 5 10 12 14 15 17 17 14 14 15 14 14 21 34 36 34 37 36 32 34 37 37 38 36 36 38 38 36 37 37 36 34 32 31 31 30 30 29 30 32 32 33 32 31 32 31 31 32 31 29 29 27 26 26 24 23 22 22 22 20 20 20 21 19 17 18 18 17 16 15 15 13 11 10 9 7 8 9
17 16 16 15 15 13 6 6 11 14 17 17 17 17 17 18 21 21 18 19 24 26 28 35 37 32 32 34 34 36 36 34 35 36 35 35 34 34 36 34 32 34 33 31 30 30 32 33 33 33 32 32 32 32 32 31 30 29 27 26 26 25 24 23 23 22 21 20 20 20 19 19 19 19 19 18 17 16 15 12 11 9 7 9 11
16 14 15 15 14 15 10 10 12 15 16 17 17 18 17 19 24 22 18 20 22 19 16 24 31 30 29 31 33 35 35 31 30 31 31 32 31 31 34 34 33 35 36 33 34 33 33 33 33 33 32 32 32 32 32 31 30 29 28 26 25 25 24 23 23 23 22 21 21 20 19 19 19 20 20 18 17 17 17 14 12 10 9 9 11
15 14 16 16 14 15 13 11 13 13 14 15 16 19 19 21 28 28 22 22 25 24 15 13 18 25 28 31 33 33 33 31 30 29 28 28 29 30 32 34 34 35 35 35 37 37 35 34 33 33 33 33 33 32 32 31 30 29 28 26 25 25 24 24 23 23 22 21 21 20 19 19 19 19 19 18 18 18 18 15 12 11 10 9 10
13 15 15 15 14 12 14 13 12 11 12 13 14 17 19 18 27 32 30 26 27 29 24 19 17 20 26 31 32 30 29 30 29 28 29 29 28 29 30 32 33 33 33 34 36 36 33 33 34 34 32 33 34 33 33 33 30 29 27 26 25 24 24 24 22 22 22 20 20 20 19 19 18 18 18 18 18 19 18 15 14 13 13 12 11
10 13 13 15 15 13 14 14 12 12 11 12 15 16 17 17 24 32 32 30 31 29 26 27 26 23 24 26 29 29 27 27 28 27 28 29 28 28 29 30 30 30 30 31 29 29 27 27 30 35 34 32 34 33 32 32 31 29 28 27 26 24 25 24 22 22 21 20 19 19 19 20 19 18 18 18 18 19 17 16 15 15 14 15 14
13 13 13 14 15 14 15 14 12 13 12 14 16 16 18 17 24 34 33 35 37 33 25 24 24 23 24 25 26 26 25 25 27 26 25 27 28 29 30 30 27 23 24 25 24 25 28 27 26 30 34 32 33 32 31 31 30 29 28 27 26 24 25 25 22 21 20 19 19 19 20 20 19 18 19 18 18 19 18 17 16 15 14 15 15
17 16 13 13 14 15 15 14 13 13 14 17 16 14 17 16 26 35 34 32 32 29 24 22 22 22 24 24 23 24 25 24 25 25 24 24 27 29 29 28 24 22 25 26 24 27 31 29 27 26 31 31 31 31 30 30 29 27 27 27 26 23 23 24 23 21 20 20 18 17 18 20 18 18 19 19 19 19 18 17 14 12 14 14 15
19 17 15 13 13 14 14 12 13 13 17 20 18 15 16 16 26 34 33 29 25 22 18 19 22 22 21 21 18 19 22 22 22 23 23 23 25 27 28 26 22 23 28 29 27 29 30 30 30 28 28 29 29 29 29 29 28 27 26 27 26 24 23 23 22 21 20 20 19 17 18 19 18 18 19 19 19 19 17 16 13 11 14 14 14
19 18 17 14 12 12 13 12 15 17 19 21 19 17 17 17 23 28 31 31 26 23 19 17 19 20 21 24 24 20 19 18 19 20 21 23 25 24 25 24 22 23 26 26 28 29 29 30 33 29 27 26 27 28 28 28 28 28 27 25 24 23 23 22 22 21 21 21 20 18 19 20 19 19 20 20 19 19 17 15 12 11 13 13 13
18 18 17 15 13 12 12 12 16 19 19 20 18 18 17 17 21 22 24 25 20 19 19 17 17 18 18 23 29 26 20 17 18 20 20 22 24 22 21 21 21 23 24 24 26 26 28 33 33 28 25 24 25 27 27 27 28 29 29 27 24 22 22 21 21 22 22 22 21 19 20 22 21 20 20 20 19 19 17 14 11 10 11 12 12
18 16 14 14 14 13 13 13 15 18 17 20 18 18 17 16 20 21 22 26 23 19 19 19 20 22 22 24 28 26 21 19 21 22 21 20 21 21 19 19 19 21 23 24 24 25 32 37 31 24 23 24 25 26 26 26 28 30 31 29 26 22 21 20 19 19 20 21 21 20 21 23 23 21 20 19 19 20 18 14 13 12 12 12 11
15 12 11 12 13 15 15 13 14 17 16 20 19 18 18 16 19 20 18 22 24 21 22 23 24 25 26 26 25 23 21 21 23 26 25 22 22 21 20 19 19 18 18 20 24 30 35 34 28 23 23 23 25 27 27 27 29 30 31 30 27 23 20 18 18 18 18 19 19 19 20 22 22 22 20 18 19 20 17 14 14 14 14 13 11
13 9 6 10 12 14 13 11 14 17 15 19 19 19 19 16 19 21 18 17 18 17 19 23 24 24 23 23 23 22 22 21 24 28 28 26 25 25 23 21 20 17 15 19 28 34 32 26 23 23 22 20 23 28 28 28 29 30 30 30 27 24 20 19 18 18 19 20 19 18 20 22 22 22 20 19 20 19 17 15 15 15 15 14 12
15 13 5 3 6 8 7 10 14 15 15 18 19 18 18 16 18 21 19 16 15 14 14 16 21 23 21 22 22 21 20 21 23 27 29 30 28 26 24 23 21 19 19 25 32 31 25 20 20 22 22 19 21 25 28 29 30 30 31 30 27 24 21 20 20 20 20 22 21 20 22 23 23 22 20 20 22 19 16 16 17 17 16 15 13
15 18 19 16 11 7 7 10 10 10 13 16 18 17 16 16 17 19 18 16 16 18 18 18 19 21 20 20 20 19 20 20 21 24 28 29 27 24 24 25 23 22 22 28 30 23 19 19 19 21 23 22 21 24 28 30 30 31 32 31 27 25 22 21 21 21 20 20 20 21 24 25 23 22 21 20 22 21 16 16 17 17 17 16 13
21 25 28 26 22 18 11 5 7 9 13 16 18 16 14 14 15 16 15 14 16 19 21 18 18 20 19 19 18 18 20 21 21 24 25 25 25 24 23 23 24 25 26 29 26 20 18 19 20 21 23 23 23 25 28 30 30 31 32 32 28 25 23 22 21 21 20 19 19 20 24 25 23 24 22 21 23 22 17 16 18 18 18 17 14
29 32 33 27 23 23 16 3 5 7 11 13 14 13 12 13 14 13 14 16 15 17 18 13 17 18 17 19 20 20 22 22 20 21 23 23 24 22 20 19 21 24 26 25 22 20 19 19 20 22 23 24 24 25 27 31 32 31 32 33 29 25 22 21 21 20 19 19 21 21 23 24 23 25 24 20 22 24 19 17 17 15 15 17 16
25 27 30 27 20 16 11 4 2 2 3 5 7 9 8 9 12 13 14 17 17 17 15 13 20 21 19 19 21 23 25 25 22 22 23 24 24 21 17 16 18 22 25 22 19 20 19 18 20 22 23 24 25 26 26 30 32 32 31 32 30 26 23 22 20 19 20 21 22 22 23 23 23 25 24 21 23 24 21 18 17 14 15 18 19
21 24 28 27 21 14 9 3 2 1 3 4 6 5 4 4 7 9 10 13 15 15 9 7 15 21 22 21 21 22 25 26 25 25 23 22 23 24 21 17 18 21 23 22 19 19 15 11 12 13 13 16 21 25 27 28 31 32 30 31 32 28 24 23 20 17 19 22 22 22 23 23 23 24 23 24 25 24 19 16 15 15 18 21 21
22 25 28 27 23 19 15 8 4 7 8 8 7 6 5 4 3 4 5 6 8 9 4 5 7 16 21 25 23 22 24 23 23 26 25 22 23 24 24 24 23 22 21 20 19 16 12 8 9 9 10 14 17 23 27 28 30 31 28 29 34 31 24 22 20 17 17 20 22 23 24 23 23 23 23 25 25 21 16 15 17 20 22 22 21
24 26 27 25 22 22 20 13 5 2 3 8 11 9 6 4 5 7 6 4 5 4 3 8 10 17 17 25 23 20 23 23 21 23 25 24 22 21 22 26 25 21 19 18 16 14 11 10 10 10 12 17 18 21 27 28 30 32 30 30 35 34 25 19 18 17 17 17 20 23 24 24 24 24 25 27 25 20 16 17 20 22 22 21 20
24 25 26 25 22 22 23 21 19 20 15 4 6 11 11 7 6 8 9 8 6 3 7 10 13 15 11 16 21 20 20 21 20 21 21 22 24 26 26 26 25 21 20 18 16 15 13 12 11 11 13 18 19 20 25 28 30 31 31 30 34 34 28 20 17 17 17 18 20 24 25 25 25 25 26 26 23 20 19 20 21 21 21 19 17
27 28 27 26 23 22 22 21 22 25 26 22 13 2 7 8 6 7 9 9 8 5 9 14 16 13 11 11 15 17 17 18 19 19 18 17 22 26 26 26 27 26 25 22 20 19 17 15 14 13 14 20 20 21 25 29 31 31 31 31 32 32 29 23 19 19 20 22 24 26 26 26 27 26 25 23 22 21 21 21 20 20 19 16 15
28 28 27 26 24 23 23 22 22 24 26 27 27 23 14 5 1 3 4 5 9 8 7 11 15 14 15 16 15 14 15 18 20 20 17 14 17 21 22 22 25 28 27 24 21 20 20 19 18 18 21 25 24 23 25 28 29 29 30 31 32 34 32 27 22 23 26 28 30 30 29 28 28 27 25 23 22 21 21 20 20 20 17 15 16
28 29 28 27 25 24 23 23 23 24 24 24 24 25 25 21 15 10 6 5 7 5 7 11 12 12 15 18 18 17 16 18 20 20 18 15 15 17 20 20 22 25 26 25 22 22 24 27 29 31 35 36 30 24 22 23 24 25 28 31 33 34 33 29 26 26 30 34 34 33 31 30 29 27 25 23 22 21 20 20 21 20 17 16 18
28 29 30 30 28 27 26 25 23 23 23 22 21 22 24 24 22 19 14 11 11 7 4 12 15 16 20 21 21 19 18 20 19 18 18 17 14 13 14 16 19 22 23 23 24 24 25 28 32 34 35 35 30 24 21 21 21 22 26 30 33 34 33 31 30 30 33 35 33 30 28 27 27 25 24 23 23 22 21 21 21 20 19 19 20
Wind_Direction
239 249 233 201 207 201 183 186 188 187 198 208 212 212 193 170 166 179 192 197 197 199 208 229 197 173 175 189 186 182 183 181 179 182 183 181 182 183 181 182 189 189 181 179 177 174 171 174 179 182 184 188 190 193 194 194 200 203 200 205 214 215 221 227 235 246 240 251 271 260 255 259 259 254 249 244 231 195 192 234 269 257 190 167 196
235 244 249 203 196 202 184 179 185 183 198 215 218 218 193 173 180 183 188 193 194 198 201 197 190 185 179 180 185 187 188 183 178 180 182 181 181 183 181 181 190 191 182 179 179 177 173 172 179 183 183 187 192 194 192 194 199 199 198 203 208 213 218 223 227 228 214 227 251 254 255 260 254 242 231 223 220 190 169 189 251 266 219 169 198
217 226 244 217 189 194 181 172 185 191 204 216 219 220 195 170 179 182 185 191 192 195 198 196 191 191 186 182 183 186 187 184 179 177 179 180 178 181 183 180 188 192 183 178 179 180 175 171 179 183 181 184 189 189 189 194 197 195 198 201 203 210 218 222 220 215 210 223 239 236 243 266 242 218 215 212 209 194 165 160 188 244 257 210 203
204 210 226 236 201 192 185 180 189 196 205 212 213 214 196 169 173 181 187 192 194 194 196 199 198 195 192 191 194 188 180 179 179 176 177 180 176 177 181 181 185 190 187 183 180 182 179 174 178 181 181 184 186 184 186 192 194 194 197 200 202 206 213 219 214 210 214 221 246 245 209 235 189 176 216 221 206 201 172 150 153 174 206 226 204
206 203 207 226 224 203 192 186 192 203 207 207 208 209 196 175 172 182 193 196 197 197 196 196 196 199 198 198 211 203 182 177 175 176 177 181 180 176 180 183 184 186 188 186 181 183 183 180 182 183 183 185 185 184 186 190 193 194 196 199 203 206 208 211 206 206 214 221 232 271 257 219 168 168 230 226 197 196 186 157 152 152 157 203 218
213 204 202 210 217 217 205 191 197 212 213 205 205 207 198 182 176 183 195 200 200 198 196 193 193 200 198 191 188 185 201 196 179 174 178 182 184 180 179 183 186 186 186 185 181 184 187 184 185 186 185 185 185 185 188 192 193 194 197 201 206 210 217 219 203 199 205 218 224 239 262 250 275 290 287 226 189 190 195 175 157 147 147 174 228
222 209 204 205 205 211 211 202 203 213 217 208 205 207 199 187 181 187 194 198 202 199 192 189 191 199 200 194 182 171 193 219 192 175 177 183 184 182 180 182 186 187 185 185 184 186 190 188 187 188 187 187 185 186 191 194 195 196 200 204 207 212 222 235 219 190 191 209 223 230 245 246 255 273 280 306 189 194 196 191 179 153 147 158 196
223 216 208 207 205 205 209 209 205 210 215 209 205 207 202 192 186 190 194 195 200 197 189 190 195 196 196 204 196 176 182 213 218 188 176 178 182 182 182 183 186 187 184 185 186 188 190 188 188 189 189 190 189 190 193 195 196 199 202 203 205 210 213 222 225 198 190 202 215 221 233 239 243 254 261 260 262 256 202 186 205 182 158 162 177
213 214 214 212 208 204 208 213 208 208 212 207 205 208 203 196 191 189 189 191 195 192 190 195 198 194 187 195 206 197 185 190 222 230 185 174 180 181 180 183 188 187 184 184 184 187 188 187 190 191 190 192 193 194 195 196 198 200 204 201 201 206 205 206 215 218 213 208 205 208 216 225 236 250 252 246 240 248 255 178 181 200 192 179 169
211 206 208 212 214 209 206 212 211 207 211 207 202 204 203 197 194 189 182 184 192 194 196 198 196 192 187 191 195 194 189 182 195 226 205 177 180 183 182 185 188 187 185 185 184 187 189 190 193 192 191 193 195 197 195 196 199 200 205 203 197 200 201 201 208 218 226 225 213 207 208 208 217 242 238 227 225 226 244 265 153 177 176 167 184
217 206 203 203 212 214 207 209 212 209 211 209 199 198 200 196 197 192 180 180 188 194 200 200 194 190 188 192 192 186 188 185 183 199 202 186 183 186 186 187 189 188 187 186 185 187 189 191 194 193 192 196 198 198 196 194 197 199 202 204 200 199 202 205 210 215 221 226 224 219 219 218 217 239 243 221 213 216 234 262 348 2 81 129 193
225 215 210 201 201 210 208 207 210 209 209 207 199 196 196 194 198 197 184 179 181 188 198 198 191 189 190 192 193 186 186 187 186 192 194 189 186 186 187 188 191 191 187 186 187 187 188 190 195 194 193 199 201 199 197 194 196 200 199 200 202 202 201 204 209 215 219 220 222 221 222 229 230 240 260 257 222 222 263 297 8 6 30 117 172
234 222 218 206 195 199 205 207 207 207 209 205 198 194 195 194 196 200 190 179 179 183 192 193 188 190 193 191 190 187 186 188 190 194 192 189 188 186 187 188 191 193 189 189 188 187 188 190 195 197 194 198 202 199 197 195 196 198 199 199 199 200 200 203 208 215 219 218 219 221 221 227 230 234 250 261 240 244 269 295 349 335 284 189 174
255 235 223 211 199 195 198 204 202 205 212 212 201 191 193 195 194 200 195 179 178 181 184 188 189 191 193 193 192 191 190 189 191 196 193 188 187 189 192 191 191 193 191 190 189 187 189 192 196 198 195 197 200 200 196 193 194 195 197 199 198 200 202 203 210 215 220 221 219 219 221 225 228 231 238 238 226 236 244 214 302 299 284 281 195
261 246 231 212 201 196 194 199 198 203 210 214 211 195 192 198 195 200 197 179 176 178 181 187 190 191 192 193 197 199 196 193 193 197 195 190 188 191 196 195 192 194 193 190 188 188 190 193 196 197 197 199 199 198 195 191 191 192 194 197 197 200 203 204 210 213 218 223 221 221 223 223 226 227 227 224 212 213 233 227 200 315 306 308 327
262 255 243 220 204 197 194 195 194 200 205 207 214 206 197 199 199 201 195 176 174 178 182 190 191 192 194 192 195 198 196 194 195 198 198 194 192 193 197 197 194 194 193 191 189 189 190 192 195 196 198 202 201 198 195 190 189 190 191 195 196 199 203 204 208 212 217 224 223 223 223 222 224 223 219 217 211 209 216 202 173 101 55 318 348
283 269 260 245 221 204 193 190 190 195 199 201 210 210 204 202 201 204 189 169 175 182 186 193 193 193 194 193 195 197 194 193 195 199 200 198 196 195 197 198 196 194 193 191 190 189 189 190 192 195 199 202 203 199 195 191 189 189 190 194 195 197 202 205 207 211 218 224 224 222 220 219 219 220 222 217 207 205 198 183 164 132 126 149 32
304 289 272 258 238 216 197 186 187 191 196 203 209 208 206 203 203 205 185 165 177 187 189 194 195 195 194 193 197 198 197 195 194 197 201 200 200 197 198 200 198 195 192 191 191 188 187 188 189 195 200 201 200 198 194 191 189 189 190 193 194 196 201 204 205 210 218 222 221 219 217 216 215 217 225 220 206 199 193 181 163 150 156 144 81
312 305 289 266 245 233 214 186 184 190 196 210 216 212 209 203 203 208 188 170 180 189 191 194 196 195 194 194 197 198 200 200 197 199 203 204 203 198 197 199 197 196 194 191 190 187 185 185 188 194 199 198 198 197 194 191 188 188 190 191 192 195 200 202 203 210 218 218 215 215 213 210 212 217 222 217 206 197 190 178 168 158 149 146 129
307 309 301 286 269 249 225 186 180 191 198 210 216 213 211 204 203 209 193 176 182 188 190 193 193 194 194 194 197 198 201 204 204 205 209 212 215 210 205 204 196 193 195 193 189 187 185 185 187 193 196 195 195 196 194 192 188 187 189 190 190 193 197 199 203 211 216 215 212 211 211 209 210 213 212 207 202 196 188 177 174 169 154 158 162
298 302 303 295 280 262 242 202 186 193 201 209 210 206 207 203 202 208 196 181 185 187 186 189 190 191 192 193 197 199 200 204 208 212 215 218 219 215 216 225 214 198 195 195 191 188 187 186 188 191 193 193 193 194 194 192 187 185 187 189 188 192 195 196 203 211 212 213 213 211 210 210 209 208 206 202 198 192 186 180 180 177 165 166 172
291 292 298 297 285 265 256 230 200 196 203 208 205 202 204 203 203 206 193 183 188 187 184 187 188 186 187 189 194 199 200 204 208 212 217 222 219 210 205 215 231 220 203 197 194 192 189 187 188 189 190 192 192 192 193 192 188 184 184 187 189 190 193 195 202 210 210 209 212 213 210 210 209 206 205 202 196 189 185 185 184 180 178 181 179
286 287 290 295 289 269 256 251 221 201 201 202 199 201 201 198 201 204 192 184 188 191 186 188 188 184 184 185 187 191 196 200 205 210 215 219 220 216 207 204 215 229 221 205 197 195 191 187 187 187 187 189 190 191 193 192 189 185 183 185 188 190 193 196 200 209 212 208 208 212 213 210 206 206 207 203 197 190 188 189 186 183 179 180 185
282 285 285 289 286 270 251 265 235 197 194 200 198 201 196 190 193 199 196 187 188 194 192 186 185 182 182 184 184 185 189 193 199 206 211 214 217 217 215 210 206 214 227 221 205 197 194 189 186 186 186 187 189 190 191 192 189 187 185 184 187 191 195 197 201 209 214 208 205 208 212 211 205 203 206 205 199 192 192 193 187 186 187 184 187
280 284 286 288 285 270 236 267 254 209 197 201 200 196 180 176 192 205 211 196 187 192 192 184 181 179 177 183 185 185 187 191 197 202 205 209 212 211 212 214 207 204 217 228 218 201 195 192 187 186 186 187 188 189 190 191 190 188 187 186 188 192 196 199 202 210 215 212 207 207 208 210 205 201 202 203 198 192 193 199 191 189 197 188 182
283 283 285 287 289 278 231 215 250 229 202 196 196 189 174 179 195 203 218 216 195 192 192 184 179 175 174 181 186 187 188 192 198 204 205 206 209 210 209 210 210 204 207 222 228 210 196 194 190 187 188 187 187 189 189 190 190 188 188 188 189 193 197 200 203 210 216 214 211 208 206 208 205 200 200 201 198 192 192 197 191 190 198 180 171
286 285 284 283 287 288 262 215 234 237 210 195 189 182 176 180 181 185 213 216 190 184 195 187 178 174 175 181 185 188 191 194 199 206 209 208 208 209 207 206 208 208 204 212 226 220 202 196 192 188 188 187 186 188 188 189 189 189 189 189 190 194 197 200 204 210 215 214 213 211 208 207 207 203 201 200 197 192 191 194 189 188 195 176 164
282 281 282 280 280 289 280 240 230 238 222 204 191 186 188 178 164 173 204 204 178 175 193 197 178 171 175 182 185 186 188 191 197 204 208 209 207 205 207 206 205 207 205 208 222 223 206 195 194 190 187 187 187 187 187 188 189 189 189 190 191 196 198 200 205 210 213 214 213 213 211 210 210 207 205 203 197 190 189 191 185 186 193 184 171
279 278 281 282 279 284 284 260 235 238 231 211 202 198 196 176 157 170 195 197 177 175 186 198 190 173 174 185 189 187 184 186 190 196 199 203 204 203 207 210 206 204 204 207 223 230 213 196 192 190 188 186 186 187 188 187 187 187 188 190 194 198 198 199 205 209 212 214 212 212 213 212 213 211 207 203 196 191 191 189 184 189 192 186 184
287 279 279 279 276 274 281 272 240 233 234 217 211 203 197 182 155 162 186 197 184 176 181 188 188 180 178 184 189 187 184 185 188 192 195 198 203 205 209 215 214 211 207 206 222 235 222 209 198 187 185 186 185 187 190 188 187 187 187 191 196 200 199 200 205 207 210 214 213 212 212 210 213 213 208 203 195 190 192 187 183 189 189 184 188
300 286 277 275 276 270 273 277 252 229 225 226 219 202 199 187 145 147 175 195 191 184 184 185 184 183 182 182 184 184 183 185 187 191 194 197 204 207 209 216 220 221 216 210 222 229 217 221 220 193 181 184 184 185 189 188 187 187 187 190 195 198 200 201 204 206 209 212 212 211 207 205 209 210 204 201 196 191 190 185 182 187 187 184 189
299 290 277 267 272 271 268 274 265 233 215 224 222 202 206 186 139 144 170 189 194 191 183 181 185 188 186 182 178 177 179 183 184 186 189 194 203 204 206 214 219 221 220 213 221 224 207 214 232 209 183 182 185 186 189 188 187 187 189 192 195 198 198 200 204 207 207 210 210 204 199 198 203 206 201 197 194 191 192 192 193 198 194 190 191
293 286 275 256 254 265 265 269 272 243 212 217 216 201 211 192 149 148 162 175 194 203 189 183 187 186 188 188 182 179 181 180 177 180 184 190 198 200 205 212 210 211 215 212 216 218 201 205 227 216 188 184 186 187 188 187 188 190 189 192 196 199 199 200 206 207 206 210 208 195 187 188 193 198 199 197 194 193 195 197 204 211 204 197 193
286 279 270 251 235 247 255 262 275 255 218 213 214 203 208 196 164 156 157 163 183 195 189 192 190 184 187 188 186 189 189 180 173 175 180 187 193 195 201 209 206 201 206 209 213 211 199 207 221 211 189 186 186 185 187 188 191 193 191 191 193 196 200 202 206 208 209 211 206 194 184 182 185 190 192 194 195 194 195 198 203 206 203 200 198
287 281 267 247 227 230 242 248 269 261 223 208 214 209 204 190 171 165 156 154 171 182 176 184 192 194 199 193 186 187 186 181 180 178 178 184 191 194 197 204 206 202 201 207 213 210 206 216 219 202 186 188 187 186 189 191 194 197 197 196 194 194 199 203 206 209 210 208 206 198 187 181 183 186 187 192 195 194 193 195 191 187 191 198 200
298 286 261 238 217 217 231 234 254 261 225 203 208 208 204 189 173 171 159 154 170 183 176 179 189 195 203 201 193 189 182 181 187 188 185 186 189 194 196 198 202 206 206 206 210 215 217 218 212 194 187 191 190 190 191 190 194 198 199 199 197 194 198 204 207 210 207 205 205 199 187 183 184 183 185 194 198 192 191 189 180 177 185 193 195
310 289 250 223 206 211 224 228 250 261 225 201 204 201 199 187 167 169 172 166 173 181 177 181 190 192 193 194 192 189 183 183 190 192 193 194 196 198 197 194 195 203 209 207 209 219 221 212 201 194 192 191 191 193 194 194 195 198 198 198 198 196 198 204 208 210 206 203 205 201 189 184 185 186 189 196 197 191 187 182 175 175 180 184 186
339 314 237 196 193 205 216 228 257 260 223 199 201 196 193 185 162 167 183 180 177 183 182 183 189 190 187 185 185 184 179 180 188 194 195 196 198 200 198 195 194 195 205 215 218 222 219 204 195 199 199 195 194 194 196 200 201 201 200 199 199 198 199 200 203 207 204 201 205 205 194 185 185 190 194 196 194 188 181 177 176 173 174 177 182
0 357 12 137 169 193 232 259 257 243 210 197 199 190 187 184 167 169 181 178 175 192 202 193 186 186 187 184 183 182 178 179 186 193 195 194 193 197 198 198 195 186 195 216 221 217 209 198 198 204 204 205 202 196 197 202 204 204 204 201 199 200 199 197 199 203 204 204 207 208 200 190 186 190 196 196 191 183 177 181 181 172 172 180 186
9 10 12 16 17 360 300 272 246 218 201 199 196 188 185 181 168 169 178 177 173 188 209 213 196 184 179 174 176 180 182 186 190 191 192 193 193 195 196 197 192 180 195 221 223 209 200 201 204 206 207 210 209 201 200 202 203 204 205 202 200 201 200 197 197 201 202 202 203 202 196 191 188 190 194 194 188 180 177 186 187 180 180 184 186
12 12 9 7 358 342 319 250 199 204 209 202 192 187 182 170 162 164 173 177 180 196 212 211 187 176 171 168 176 186 185 189 197 195 190 191 193 194 194 198 191 182 197 219 217 202 201 205 206 209 209 210 213 208 203 203 203 204 205 202 199 201 202 199 197 202 201 192 186 186 186 187 190 191 191 190 187 182 179 187 191 190 192 192 186
9 9 4 358 343 333 328 290 187 202 210 199 183 171 161 157 159 162 169 176 190 217 227 200 168 176 186 180 181 188 186 185 190 191 187 188 193 195 196 203 203 197 203 210 204 200 208 208 208 212 210 211 216 212 205 203 203 202 204 204 200 199 203 200 198 202 198 184 179 183 183 183 188 189 187 185 184 186 190 195 193 193 197 194 182
8 5 356 348 333 321 311 270 206 209 206 172 150 148 150 157 158 157 172 188 202 224 230 184 164 181 195 186 179 184 189 189 182 178 183 187 192 194 194 203 215 210 202 196 192 199 209 211 211 212 209 209 212 210 206 205 202 201 203 203 200 199 203 203 200 198 192 181 180 185 184 179 181 183 183 181 183 189 199 204 202 198 191 181 169
3 359 353 347 339 325 305 269 129 164 205 170 148 146 127 114 131 143 171 195 206 223 229 156 163 187 190 181 178 181 187 193 190 184 182 182 185 191 193 205 226 217 196 186 190 197 204 215 223 225 225 219 209 204 205 205 202 202 202 201 201 200 201 204 202 194 187 182 181 185 184 180 178 178 180 182 185 189 198 202 197 185 172 167 162
1 360 356 352 351 346 328 298 203 190 200 186 171 154 117 96 121 152 172 182 197 223 220 131 196 219 194 174 175 178 179 186 191 190 189 186 185 188 189 200 220 222 202 191 194 198 200 208 215 227 249 247 221 202 199 201 202 204 202 201 202 201 198 199 198 189 183 183 183 184 181 179 179 178 178 181 183 186 192 188 179 173 168 166 163
2 2 357 355 2 4 351 337 327 289 219 183 170 156 140 160 187 184 190 194 197 214 151 150 214 241 206 173 170 176 179 181 182 185 190 192 190 191 194 198 205 211 207 199 195 194 195 199 197 199 227 243 230 204 198 199 200 202 202 201 202 202 197 190 186 183 181 178 178 179 178 177 179 179 179 180 179 180 182 177 173 173 171 166 165
4 2 0 3 9 8 2 1 1 355 349 333 181 171 169 179 195 193 198 210 206 157 120 162 216 257 245 181 168 167 175 180 180 182 185 186 188 194 198 195 192 195 200 201 198 192 188 194 198 197 219 236 226 203 199 199 196 198 202 202 203 203 199 189 182 179 176 172 171 174 174 174 173 173 176 179 177 175 176 174 173 174 173 170 174
8 6 6 10 12 7 4 5 2 355 354 355 358 15 167 175 199 205 197 209 223 191 138 165 198 238 264 223 181 165 168 175 181 186 187 188 193 196 195 192 193 198 200 198 197 194 191 196 199 198 217 231 221 201 200 201 196 196 200 201 201 202 200 194 184 174 168 166 165 165 164 164 165 166 169 172 173 173 175 175 176 177 179 182 185
8 10 10 12 12 8 5 5 3 358 356 0 6 7 9 16 299 239 193 210 240 233 184 176 190 208 229 224 201 185 182 184 189 193 196 203 207 203 199 199 204 210 212 208 202 198 199 207 211 208 214 221 217 206 204 205 201 200 201 200 199 199 197 191 183 176 168 160 156 157 160 161 163 164 165 168 170 172 176 180 181 181 183 184 180
6 10 13 14 14 11 8 6 5 2 359 1 6 5 7 12 10 358 354 334 309 279 210 203 207 222 232 221 205 202 202 198 199 199 199 204 206 201 200 199 200 207 214 215 211 206 204 207 209 210 212 216 216 212 206 203 203 206 208 206 201 196 192 183 177 176 170 159 155 158 162 163 163 164 166 169 171 173 177 182 182 181 182 181 176
6 9 12 13 13 11 11 8 5 3 1 1 4 4 5 7 5 360 354 343 343 350 246 221 218 231 238 222 205 204 204 200 200 201 197 194 190 191 197 195 192 198 205 208 209 210 208 205 204 206 210 213 216 215 207 200 201 207 211 206 197 190 186 181 176 171 163 157 155 157 160 163 165 167 170 173 175 176 179 183 183 182 184 184 179